| time (UTC) | temp F | wind direction | speed MPH | gust MPH | rain 1hr in | rain 24hr in | rain mn in | humidity % | barometer mb |
| 20260903133755 | 80 | 225 | 5.0 | 10.0 | 0.00 | 0.00 | 0.00 | 82 | 1010.8 |
| 20260903133252 | 79 | 246 | 4.0 | 10.0 | 0.00 | 0.00 | 0.00 | 82 | 1010.8 |
| 20260903132746 | 79 | 196 | 4.0 | 10.0 | 0.00 | 0.00 | 0.00 | 83 | 1010.9 |
| 20260903132459 | 78 | 181 | 4.0 | 9.0 | 0.00 | 0.00 | 0.00 | 83 | 1010.9 |
| 20260903131956 | 78 | 244 | 3.0 | 9.0 | 0.00 | 0.00 | 0.00 | 84 | 1010.9 |
| 20260903131452 | 78 | 229 | 3.0 | 9.0 | 0.00 | 0.00 | 0.00 | 84 | 1011.0 |
| 20260903130948 | 77 | 169 | 3.0 | 7.0 | 0.00 | 0.00 | 0.00 | 84 | 1011.0 |
| 20260903130211 | 77 | 225 | 3.0 | 7.0 | 0.00 | 0.00 | 0.00 | 85 | 1011.0 |
| 20260903125710 | 77 | 213 | 3.0 | 7.0 | 0.00 | 0.00 | 0.00 | 85 | 1011.1 |
| 20260903125206 | 77 | 214 | 3.0 | 5.0 | 0.00 | 0.00 | 0.00 | 85 | 1011.1 |
| 20260903124658 | 76 | 177 | 3.0 | 5.0 | 0.00 | 0.00 | 0.00 | 86 | 1011.1 |
| 20260903124151 | 76 | 196 | 2.0 | 5.0 | 0.00 | 0.00 | 0.00 | 86 | 1011.1 |
| 20260903123641 | 76 | 215 | 2.0 | 5.0 | 0.00 | 0.00 | 0.00 | 86 | 1011.1 |
| 20260903123140 | 76 | 207 | 1.0 | 4.0 | 0.00 | 0.00 | 0.00 | 87 | 1011.1 |
| 20260903122635 | 75 | 148 | 1.0 | 4.0 | 0.00 | 0.00 | 0.00 | 87 | 1011.1 |
| 20260903122128 | 75 | 200 | 1.0 | 4.0 | 0.00 | 0.00 | 0.00 | 87 | 1011.1 |
| 20260903121623 | 75 | 219 | 1.0 | 5.0 | 0.00 | 0.00 | 0.00 | 87 | 1011.1 |
| 20260903121113 | 75 | 217 | 1.0 | 5.0 | 0.00 | 0.00 | 0.00 | 87 | 1011.0 |
| 20260903120833 | 75 | 178 | 1.0 | 3.0 | 0.00 | 0.00 | 0.00 | 87 | 1011.0 |
| 20260903120104 | 75 | 191 | 1.0 | 3.0 | 0.00 | 0.00 | 0.00 | 87 | 1011.0 |
| 20260903115640 | 75 | 211 | 1.0 | 3.0 | 0.00 | 0.00 | 0.00 | 87 | 1011.0 |
| 20260903114805 | 74 | 178 | 1.0 | 4.0 | 0.00 | 0.00 | 0.00 | 87 | 1011.0 |
| 20260903114040 | 74 | 191 | 1.0 | 4.0 | 0.00 | 0.00 | 0.00 | 87 | 1010.9 |
| 20260903113535 | 74 | 207 | 1.0 | 4.0 | 0.00 | 0.00 | 0.00 | 87 | 1010.9 |
| 20260903113029 | 74 | 224 | 1.0 | 4.0 | 0.00 | 0.00 | 0.00 | 87 | 1010.9 |
| 20260903112523 | 75 | 180 | 1.0 | 4.0 | 0.00 | 0.00 | 0.00 | 87 | 1010.9 |
| 20260903112015 | 75 | 237 | 0.0 | 4.0 | 0.00 | 0.00 | 0.00 | 87 | 1010.9 |
| 20260903111511 | 75 | 213 | 1.0 | 3.0 | 0.00 | 0.00 | 0.00 | 87 | 1010.9 |
| 20260903111000 | 75 | 219 | 1.0 | 3.0 | 0.00 | 0.00 | 0.00 | 87 | 1010.9 |
| 20260903110458 | 75 | 236 | 1.0 | 4.0 | 0.00 | 0.00 | 0.00 | 87 | 1010.9 |
| 20260903105952 | 75 | 229 | 1.0 | 4.0 | 0.00 | 0.00 | 0.00 | 86 | 1010.8 |
| 20260903105445 | 75 | 221 | 2.0 | 4.0 | 0.00 | 0.00 | 0.00 | 86 | 1010.8 |
| 20260903104940 | 75 | 223 | 2.0 | 5.0 | 0.00 | 0.00 | 0.00 | 86 | 1010.8 |
| 20260903104432 | 75 | 223 | 1.0 | 5.0 | 0.00 | 0.00 | 0.00 | 86 | 1010.8 |
| 20260903104141 | 75 | 234 | 2.0 | 5.0 | 0.00 | 0.00 | 0.00 | 86 | 1010.8 |
| 20260903103407 | 75 | 244 | 2.0 | 6.0 | 0.00 | 0.00 | 0.00 | 86 | 1010.8 |
| 20260903103118 | 75 | 225 | 2.0 | 6.0 | 0.00 | 0.00 | 0.00 | 86 | 1010.8 |
| 20260903102358 | 75 | 194 | 2.0 | 4.0 | 0.00 | 0.00 | 0.00 | 86 | 1010.8 |
| 20260903101859 | 75 | 161 | 2.0 | 6.0 | 0.00 | 0.00 | 0.00 | 86 | 1010.8 |
| 20260903101359 | 75 | 190 | 2.0 | 6.0 | 0.00 | 0.00 | 0.00 | 86 | 1010.8 |
| 20260903100859 | 75 | 226 | 1.0 | 4.0 | 0.00 | 0.00 | 0.00 | 86 | 1010.8 |
| 20260903100358 | 76 | 196 | 1.0 | 3.0 | 0.00 | 0.00 | 0.00 | 86 | 1010.8 |
| 20260903095901 | 76 | 213 | 2.0 | 5.0 | 0.00 | 0.00 | 0.00 | 86 | 1010.8 |
| 20260903095401 | 76 | 224 | 2.0 | 5.0 | 0.00 | 0.00 | 0.00 | 86 | 1010.8 |
| 20260903094857 | 76 | 213 | 1.0 | 4.0 | 0.00 | 0.00 | 0.00 | 86 | 1010.8 |
| 20260903094620 | 76 | 222 | 1.0 | 4.0 | 0.00 | 0.00 | 0.00 | 86 | 1010.8 |
| 20260903093851 | 76 | 213 | 2.0 | 4.0 | 0.00 | 0.00 | 0.00 | 86 | 1010.8 |
| 20260903093347 | 76 | 188 | 2.0 | 6.0 | 0.00 | 0.00 | 0.00 | 86 | 1010.8 |
| 20260903092840 | 76 | 225 | 2.0 | 4.0 | 0.00 | 0.00 | 0.00 | 86 | 1010.7 |
| 20260903092330 | 76 | 215 | 1.0 | 4.0 | 0.00 | 0.00 | 0.00 | 86 | 1010.7 |
| 20260903091825 | 76 | 203 | 1.0 | 3.0 | 0.00 | 0.00 | 0.00 | 86 | 1010.7 |
| 20260903091320 | 76 | 231 | 1.0 | 3.0 | 0.00 | 0.00 | 0.00 | 86 | 1010.4 |
| 20260903091032 | 76 | 216 | 1.0 | 3.0 | 0.00 | 0.00 | 0.00 | 86 | 1010.4 |
| 20260903090308 | 76 | 205 | 1.0 | 3.0 | 0.00 | 0.00 | 0.00 | 86 | 1010.4 |
| 20260903085800 | 76 | 197 | 1.0 | 3.0 | 0.00 | 0.00 | 0.00 | 86 | 1010.4 |
| 20260903085255 | 76 | 200 | 1.0 | 3.0 | 0.00 | 0.00 | 0.00 | 86 | 1010.4 |
| 20260903084750 | 77 | 218 | 1.0 | 3.0 | 0.00 | 0.00 | 0.00 | 86 | 1010.4 |
| 20260903084239 | 77 | 196 | 1.0 | 5.0 | 0.00 | 0.00 | 0.00 | 86 | 1010.4 |
| 20260903083738 | 77 | 212 | 1.0 | 5.0 | 0.00 | 0.00 | 0.00 | 86 | 1010.4 |
| 20260903083225 | 77 | 231 | 1.0 | 5.0 | 0.00 | 0.00 | 0.00 | 86 | 1010.4 |
| 20260903082725 | 77 | 220 | 0.0 | 2.0 | 0.00 | 0.00 | 0.00 | 86 | 1010.4 |
| 20260903082220 | 77 | 194 | 0.0 | 2.0 | 0.00 | 0.00 | 0.00 | 86 | 1010.4 |
| 20260903081714 | 77 | 193 | 1.0 | 3.0 | 0.00 | 0.00 | 0.00 | 86 | 1010.4 |
| 20260903081208 | 77 | 239 | 1.0 | 4.0 | 0.00 | 0.00 | 0.00 | 85 | 1010.4 |
| 20260903080653 | 77 | 229 | 1.0 | 4.0 | 0.00 | 0.00 | 0.00 | 86 | 1010.4 |
| 20260903080157 | 78 | 234 | 2.0 | 5.0 | 0.00 | 0.00 | 0.00 | 86 | 1010.4 |
| 20260903075650 | 78 | 216 | 3.0 | 6.0 | 0.00 | 0.00 | 0.00 | 86 | 1010.4 |
| 20260903075401 | 78 | 230 | 3.0 | 7.0 | 0.00 | 0.00 | 0.00 | 86 | 1010.4 |
| 20260903074637 | 78 | 231 | 3.0 | 7.0 | 0.00 | 0.00 | 0.00 | 86 | 1010.4 |
| 20260903074130 | 78 | 217 | 3.0 | 6.0 | 0.00 | 0.00 | 0.00 | 86 | 1010.3 |
| 20260903073625 | 78 | 227 | 3.0 | 6.0 | 0.00 | 0.00 | 0.00 | 86 | 1010.3 |
| 20260903073119 | 78 | 221 | 2.0 | 5.0 | 0.00 | 0.00 | 0.00 | 86 | 1010.3 |
| 20260903072841 | 77 | 227 | 1.0 | 5.0 | 0.00 | 0.00 | 0.00 | 87 | 1010.4 |
| 20260903072108 | 77 | 211 | 0.0 | 2.0 | 0.00 | 0.00 | 0.00 | 87 | 1010.4 |
| 20260903071600 | 78 | 189 | 0.0 | 1.0 | 0.00 | 0.00 | 0.00 | 87 | 1010.4 |
| 20260903071056 | 78 | 214 | 0.0 | 1.0 | 0.00 | 0.00 | 0.00 | 87 | 1010.3 |
| 20260903070541 | 78 | 209 | 0.0 | 1.0 | 0.00 | 0.00 | 0.00 | 87 | 1010.3 |
| 20260903070044 | 78 | 200 | 0.0 | 0.0 | 0.00 | 0.00 | 0.00 | 87 | 1010.3 |
| 20260903065537 | 78 | 199 | 0.0 | 0.0 | 0.00 | 0.00 | 0.00 | 87 | 1010.3 |
| 20260903065032 | 78 | 219 | 0.0 | 0.0 | 0.00 | 0.00 | 0.00 | 87 | 1010.3 |
| 20260903064524 | 78 | 238 | 0.0 | 0.0 | 0.00 | 0.00 | 0.00 | 87 | 1010.3 |
| 20260903064019 | 78 | 228 | 0.0 | 0.0 | 0.00 | 0.00 | 0.00 | 87 | 1010.3 |
| 20260903063513 | 78 | 207 | 0.0 | 0.0 | 0.00 | 0.00 | 0.00 | 87 | 1010.3 |
| 20260903063229 | 78 | 153 | 0.0 | 0.0 | 0.00 | 0.00 | 0.00 | 87 | 1010.3 |
| 20260903062716 | 78 | 236 | 0.0 | 0.0 | 0.00 | 0.00 | 0.00 | 87 | 1010.3 |
| 20260903061942 | 78 | 214 | 0.0 | 0.0 | 0.00 | 0.00 | 0.00 | 87 | 1010.3 |
| 20260903061430 | 78 | 213 | 0.0 | 1.0 | 0.00 | 0.00 | 0.00 | 87 | 1010.5 |
| 20260903060923 | 78 | 212 | 0.0 | 2.0 | 0.00 | 0.00 | 0.00 | 87 | 1010.5 |
| 20260903060423 | 78 | 219 | 1.0 | 2.0 | 0.00 | 0.00 | 0.00 | 87 | 1010.5 |
| 20260903055923 | 78 | 227 | 1.0 | 4.0 | 0.00 | 0.00 | 0.00 | 87 | 1010.4 |
| 20260903055644 | 78 | 227 | 2.0 | 4.0 | 0.00 | 0.00 | 0.00 | 87 | 1010.4 |
| 20260903054926 | 78 | 238 | 2.0 | 5.0 | 0.00 | 0.00 | 0.00 | 87 | 1010.4 |
| 20260903054423 | 78 | 236 | 2.0 | 5.0 | 0.00 | 0.00 | 0.00 | 86 | 1010.4 |
| 20260903053923 | 78 | 238 | 2.0 | 4.0 | 0.00 | 0.00 | 0.00 | 87 | 1010.4 |
| 20260903053421 | 78 | 228 | 2.0 | 4.0 | 0.00 | 0.00 | 0.00 | 86 | 1010.4 |
| 20260903052920 | 78 | 217 | 2.0 | 4.0 | 0.00 | 0.00 | 0.00 | 86 | 1010.3 |
| 20260903052419 | 78 | 225 | 2.0 | 4.0 | 0.00 | 0.00 | 0.00 | 86 | 1010.3 |
| 20260903051913 | 78 | 223 | 2.0 | 4.0 | 0.00 | 0.00 | 0.00 | 86 | 1010.3 |
| 20260903051409 | 78 | 226 | 2.0 | 4.0 | 0.00 | 0.00 | 0.00 | 86 | 1010.2 |
| 20260903050903 | 78 | 226 | 1.0 | 4.0 | 0.00 | 0.00 | 0.00 | 86 | 1010.2 |
| 20260903050352 | 79 | 213 | 1.0 | 3.0 | 0.00 | 0.00 | 0.00 | 86 | 1010.2 |
| 20260903045850 | 79 | 212 | 0.0 | 3.0 | 0.00 | 0.00 | 0.00 | 86 | 1010.2 |
| 20260903045339 | 79 | 217 | 0.0 | 0.0 | 0.00 | 0.00 | 0.00 | 86 | 1010.2 |
| 20260903044825 | 79 | 204 | 1.0 | 3.0 | 0.00 | 0.00 | 0.00 | 86 | 1010.2 |
| 20260903044313 | 79 | 218 | 2.0 | 5.0 | 0.00 | 0.00 | 0.00 | 86 | 1010.2 |
| 20260903043803 | 79 | 199 | 2.0 | 5.0 | 0.00 | 0.00 | 0.00 | 86 | 1010.2 |
| 20260903043251 | 79 | 159 | 1.0 | 3.0 | 0.00 | 0.00 | 0.00 | 85 | 1010.2 |
| 20260903042737 | 79 | 209 | 2.0 | 6.0 | 0.00 | 0.00 | 0.00 | 85 | 1010.2 |
| 20260903042228 | 79 | 218 | 1.0 | 6.0 | 0.00 | 0.00 | 0.00 | 85 | 1010.2 |
| 20260903041720 | 79 | 195 | 1.0 | 4.0 | 0.00 | 0.00 | 0.00 | 85 | 1010.2 |
| 20260903041213 | 80 | 221 | 2.0 | 4.0 | 0.00 | 0.00 | 0.00 | 85 | 1010.2 |
| 20260903040704 | 80 | 223 | 2.0 | 4.0 | 0.00 | 0.00 | 0.00 | 85 | 1010.2 |
| 20260903040201 | 80 | 187 | 2.0 | 5.0 | 0.00 | 0.00 | 0.00 | 85 | 1010.2 |
| 20260903035656 | 80 | 221 | 1.0 | 4.0 | 0.00 | 0.00 | 0.00 | 85 | 1010.2 |
| 20260903035410 | 80 | 173 | 1.0 | 4.0 | 0.00 | 0.00 | 0.00 | 85 | 1010.2 |
| 20260903034643 | 80 | 231 | 1.0 | 4.0 | 0.00 | 0.00 | 0.00 | 85 | 1010.2 |
| 20260903034137 | 80 | 219 | 2.0 | 4.0 | 0.00 | 0.00 | 0.00 | 85 | 1010.1 |
| 20260903033633 | 80 | 222 | 2.0 | 4.0 | 0.00 | 0.00 | 0.00 | 85 | 1010.1 |
| 20260903033122 | 80 | 225 | 2.0 | 4.0 | 0.00 | 0.00 | 0.00 | 85 | 1010.1 |
| 20260903032620 | 80 | 219 | 1.0 | 4.0 | 0.00 | 0.00 | 0.00 | 85 | 1010.2 |
| 20260903032115 | 80 | 198 | 1.0 | 4.0 | 0.00 | 0.00 | 0.00 | 85 | 1010.2 |
| 20260903031609 | 80 | 220 | 2.0 | 5.0 | 0.00 | 0.00 | 0.00 | 85 | 1010.2 |
| 20260903031103 | 81 | 215 | 2.0 | 5.0 | 0.00 | 0.00 | 0.00 | 85 | 1010.1 |
| 20260903030551 | 81 | 217 | 2.0 | 4.0 | 0.00 | 0.00 | 0.00 | 85 | 1010.1 |
| 20260903030049 | 81 | 232 | 2.0 | 4.0 | 0.00 | 0.00 | 0.00 | 84 | 1010.1 |
| 20260903025544 | 81 | 223 | 1.0 | 3.0 | 0.00 | 0.00 | 0.00 | 84 | 1010.2 |
| 20260903025037 | 81 | 218 | 1.0 | 3.0 | 0.00 | 0.00 | 0.00 | 84 | 1010.2 |
| 20260903024531 | 81 | 200 | 2.0 | 4.0 | 0.00 | 0.00 | 0.00 | 84 | 1010.2 |
| 20260903024021 | 81 | 213 | 2.0 | 5.0 | 0.00 | 0.00 | 0.00 | 84 | 1010.2 |
| 20260903023519 | 82 | 218 | 3.0 | 5.0 | 0.00 | 0.00 | 0.00 | 83 | 1010.2 |
| 20260903023014 | 82 | 227 | 2.0 | 5.0 | 0.00 | 0.00 | 0.00 | 83 | 1010.2 |
| 20260903022507 | 82 | 232 | 2.0 | 5.0 | 0.00 | 0.00 | 0.00 | 83 | 1010.0 |
| 20260903022228 | 82 | 192 | 2.0 | 4.0 | 0.00 | 0.00 | 0.00 | 82 | 1010.0 |
| 20260903021455 | 82 | 217 | 2.0 | 3.0 | 0.00 | 0.00 | 0.00 | 82 | 1010.1 |
| 20260903020951 | 82 | 190 | 2.0 | 5.0 | 0.00 | 0.00 | 0.00 | 82 | 1010.1 |
| 20260903020444 | 82 | 207 | 2.0 | 5.0 | 0.00 | 0.00 | 0.00 | 82 | 1010.1 |
| 20260903015938 | 82 | 167 | 2.0 | 4.0 | 0.00 | 0.00 | 0.00 | 82 | 1010.0 |
| 20260903015432 | 83 | 181 | 1.0 | 4.0 | 0.00 | 0.00 | 0.00 | 82 | 1010.0 |
| 20260903014926 | 83 | 233 | 1.0 | 3.0 | 0.00 | 0.00 | 0.00 | 81 | 1010.0 |
| 20260903014419 | 83 | 188 | 1.0 | 4.0 | 0.00 | 0.00 | 0.00 | 81 | 1010.0 |
| 20260903013909 | 83 | 184 | 1.0 | 4.0 | 0.00 | 0.00 | 0.00 | 81 | 1010.0 |
| 20260903013407 | 83 | 194 | 1.0 | 3.0 | 0.00 | 0.00 | 0.00 | 81 | 1010.0 |
| 20260903013128 | 84 | 219 | 1.0 | 3.0 | 0.00 | 0.00 | 0.00 | 81 | 1009.7 |
| 20260903012354 | 84 | 229 | 1.0 | 6.0 | 0.00 | 0.00 | 0.00 | 80 | 1009.7 |
| 20260903011850 | 84 | 229 | 2.0 | 6.0 | 0.00 | 0.00 | 0.00 | 80 | 1009.7 |
| 20260903011342 | 84 | 214 | 2.0 | 5.0 | 0.00 | 0.00 | 0.00 | 79 | 1009.6 |
| 20260903010837 | 84 | 204 | 2.0 | 5.0 | 0.00 | 0.00 | 0.00 | 79 | 1009.6 |
| 20260903010329 | 85 | 211 | 2.0 | 5.0 | 0.00 | 0.00 | 0.00 | 79 | 1009.6 |
| 20260903005822 | 85 | 176 | 2.0 | 6.0 | 0.00 | 0.00 | 0.00 | 79 | 1009.5 |
| 20260903005322 | 85 | 248 | 2.0 | 6.0 | 0.00 | 0.00 | 0.00 | 78 | 1009.5 |
| 20260903004822 | 85 | 232 | 1.0 | 4.0 | 0.00 | 0.00 | 0.00 | 78 | 1009.5 |
| 20260903004322 | 85 | 169 | 1.0 | 4.0 | 0.00 | 0.00 | 0.00 | 78 | 1009.5 |
| 20260903003822 | 86 | 217 | 2.0 | 6.0 | 0.00 | 0.00 | 0.00 | 78 | 1009.5 |
| 20260903003323 | 86 | 239 | 3.0 | 6.0 | 0.00 | 0.00 | 0.00 | 77 | 1009.5 |
| 20260903002825 | 86 | 192 | 2.0 | 6.0 | 0.00 | 0.00 | 0.00 | 77 | 1009.5 |
| 20260903002320 | 87 | 194 | 2.0 | 6.0 | 0.00 | 0.00 | 0.00 | 76 | 1009.5 |
| 20260903001822 | 87 | 189 | 2.0 | 5.0 | 0.00 | 0.00 | 0.00 | 76 | 1009.5 |
| 20260903001317 | 87 | 230 | 2.0 | 5.0 | 0.00 | 0.00 | 0.00 | 76 | 1009.5 |
| 20260903001030 | 87 | 203 | 2.0 | 5.0 | 0.00 | 0.00 | 0.00 | 75 | 1009.5 |
| 20260903000304 | 88 | 184 | 2.0 | 7.0 | 0.00 | 0.00 | 0.00 | 75 | 1009.5 |
| 20260902235758 | 88 | 206 | 2.0 | 7.0 | 0.00 | 0.00 | 0.00 | 75 | 1009.7 |
| 20260902235254 | 88 | 207 | 2.0 | 5.0 | 0.00 | 0.00 | 0.00 | 74 | 1009.7 |
| 20260902235226 | 89 | 208 | 2.0 | 5.0 | 0.00 | 0.00 | 0.00 | 74 | 1009.7 |
| 20260902234457 | 89 | 236 | 3.0 | 8.0 | 0.00 | 0.00 | 0.00 | 74 | 1009.7 |
| 20260902233735 | 89 | 216 | 3.0 | 8.0 | 0.00 | 0.00 | 0.00 | 74 | 1009.7 |
| 20260902233710 | 89 | 227 | 2.0 | 8.0 | 0.00 | 0.00 | 0.00 | 74 | 1009.7 |
| 20260902232722 | 89 | 210 | 3.0 | 6.0 | 0.00 | 0.00 | 0.00 | 74 | 1009.8 |
| 20260902232704 | 90 | 196 | 3.0 | 7.0 | 0.00 | 0.00 | 0.00 | 73 | 1009.8 |
| 20260902231705 | 90 | 218 | 3.0 | 7.0 | 0.00 | 0.00 | 0.00 | 73 | 1009.8 |
| 20260902231206 | 90 | 222 | 3.0 | 8.0 | 0.00 | 0.00 | 0.00 | 72 | 1009.7 |
| 20260902230700 | 91 | 215 | 3.0 | 9.0 | 0.00 | 0.00 | 0.00 | 72 | 1009.7 |
| 20260902230153 | 91 | 215 | 3.0 | 9.0 | 0.00 | 0.00 | 0.00 | 71 | 1009.7 |
| 20260902225644 | 91 | 214 | 4.0 | 9.0 | 0.00 | 0.00 | 0.00 | 71 | 1009.7 |
| 20260902225141 | 91 | 225 | 3.0 | 9.0 | 0.00 | 0.00 | 0.00 | 70 | 1009.7 |
| 20260902224634 | 91 | 148 | 4.0 | 9.0 | 0.00 | 0.00 | 0.00 | 70 | 1009.7 |
| 20260902224347 | 92 | 171 | 4.0 | 7.0 | 0.00 | 0.00 | 0.00 | 69 | 1009.8 |
| 20260902224110 | 92 | 209 | 4.0 | 8.0 | 0.00 | 0.00 | 0.00 | 70 | 1009.8 |
| 20260902223116 | 92 | 132 | 4.0 | 10.0 | 0.00 | 0.00 | 0.00 | 69 | 1009.8 |
| 20260902222610 | 92 | 200 | 4.0 | 10.0 | 0.00 | 0.00 | 0.00 | 68 | 1009.8 |
| 20260902222104 | 92 | 227 | 4.0 | 8.0 | 0.00 | 0.00 | 0.00 | 68 | 1009.8 |
| 20260902221605 | 92 | 232 | 4.0 | 8.0 | 0.00 | 0.00 | 0.00 | 68 | 1009.8 |
| 20260902221324 | 92 | 218 | 3.0 | 9.0 | 0.00 | 0.00 | 0.00 | 67 | 1009.8 |
| 20260902220604 | 92 | 224 | 3.0 | 9.0 | 0.00 | 0.00 | 0.00 | 68 | 1009.8 |
| 20260902220104 | 92 | 204 | 4.0 | 9.0 | 0.00 | 0.00 | 0.00 | 68 | 1009.8 |
| 20260902215604 | 92 | 238 | 4.0 | 11.0 | 0.00 | 0.00 | 0.00 | 66 | 1010.0 |
| 20260902215326 | 92 | 200 | 5.0 | 11.0 | 0.00 | 0.00 | 0.00 | 66 | 1010.0 |
| 20260902215044 | 93 | 233 | 5.0 | 11.0 | 0.00 | 0.00 | 0.00 | 65 | 1010.0 |
| 20260902214104 | 93 | 201 | 4.0 | 11.0 | 0.00 | 0.00 | 0.00 | 64 | 1010.1 |
| 20260902213603 | 93 | 232 | 4.0 | 12.0 | 0.00 | 0.00 | 0.00 | 65 | 1010.1 |
| 20260902213548 | 94 | 146 | 6.0 | 14.0 | 0.00 | 0.00 | 0.00 | 64 | 1010.1 |
| 20260902212603 | 93 | 236 | 7.0 | 14.0 | 0.00 | 0.00 | 0.00 | 63 | 1010.1 |
| 20260902212101 | 94 | 239 | 6.0 | 11.0 | 0.00 | 0.00 | 0.00 | 63 | 1010.1 |
| 20260902211602 | 94 | 221 | 5.0 | 10.0 | 0.00 | 0.00 | 0.00 | 64 | 1010.1 |
| 20260902211102 | 94 | 235 | 5.0 | 10.0 | 0.00 | 0.00 | 0.00 | 63 | 1010.1 |
| 20260902210602 | 93 | 226 | 6.0 | 11.0 | 0.00 | 0.00 | 0.00 | 64 | 1010.1 |
| 20260902210324 | 93 | 244 | 6.0 | 13.0 | 0.00 | 0.00 | 0.00 | 63 | 1010.1 |
| 20260902205558 | 94 | 211 | 5.0 | 13.0 | 0.00 | 0.00 | 0.00 | 63 | 1010.2 |
| 20260902205046 | 94 | 257 | 5.0 | 11.0 | 0.00 | 0.00 | 0.00 | 64 | 1010.2 |
| 20260902204546 | 94 | 197 | 4.0 | 11.0 | 0.00 | 0.00 | 0.00 | 63 | 1010.2 |
| 20260902204046 | 94 | 221 | 4.0 | 11.0 | 0.00 | 0.00 | 0.00 | 62 | 1010.2 |
| 20260902203546 | 94 | 227 | 5.0 | 14.0 | 0.00 | 0.00 | 0.00 | 60 | 1010.2 |
| 20260902203310 | 94 | 202 | 6.0 | 14.0 | 0.00 | 0.00 | 0.00 | 61 | 1010.2 |
| 20260902202545 | 94 | 209 | 5.0 | 14.0 | 0.00 | 0.00 | 0.00 | 62 | 1010.2 |
| 20260902202045 | 94 | 254 | 4.0 | 10.0 | 0.00 | 0.00 | 0.00 | 61 | 1010.2 |
| 20260902201812 | 94 | 157 | 4.0 | 9.0 | 0.00 | 0.00 | 0.00 | 64 | 1010.2 |
| 20260902201351 | 94 | 225 | 5.0 | 10.0 | 0.00 | 0.00 | 0.00 | 64 | 1010.4 |
| 20260902200035 | 94 | 225 | 5.0 | 13.0 | 0.00 | 0.00 | 0.00 | 61 | 1010.4 |
| 20260902195530 | 94 | 246 | 4.0 | 10.0 | 0.00 | 0.00 | 0.00 | 60 | 1010.5 |
| 20260902195023 | 94 | 161 | 4.0 | 11.0 | 0.00 | 0.00 | 0.00 | 63 | 1010.5 |
| 20260902194518 | 93 | 213 | 5.0 | 11.0 | 0.00 | 0.00 | 0.00 | 63 | 1010.5 |
| 20260902194011 | 93 | 218 | 4.0 | 10.0 | 0.00 | 0.00 | 0.00 | 63 | 1010.7 |
| 20260902193506 | 93 | 216 | 4.0 | 10.0 | 0.00 | 0.00 | 0.00 | 65 | 1010.7 |
| 20260902192955 | 94 | 212 | 4.0 | 10.0 | 0.00 | 0.00 | 0.00 | 62 | 1010.7 |
| 20260902192452 | 93 | 210 | 4.0 | 10.0 | 0.00 | 0.00 | 0.00 | 64 | 1010.8 |
| 20260902191946 | 93 | 235 | 5.0 | 10.0 | 0.00 | 0.00 | 0.00 | 62 | 1010.8 |
| 20260902191440 | 93 | 217 | 5.0 | 10.0 | 0.00 | 0.00 | 0.00 | 60 | 1011.0 |
| 20260902190934 | 93 | 273 | 5.0 | 10.0 | 0.00 | 0.00 | 0.00 | 60 | 1011.0 |
| 20260902190423 | 92 | 258 | 5.0 | 11.0 | 0.00 | 0.00 | 0.00 | 60 | 1011.0 |
| 20260902190146 | 92 | 226 | 5.0 | 11.0 | 0.00 | 0.00 | 0.00 | 61 | 1011.0 |
| 20260902185417 | 92 | 236 | 4.0 | 11.0 | 0.00 | 0.00 | 0.00 | 63 | 1011.0 |
| 20260902184909 | 92 | 237 | 3.0 | 8.0 | 0.00 | 0.00 | 0.00 | 64 | 1011.0 |
| 20260902184404 | 92 | 196 | 4.0 | 10.0 | 0.00 | 0.00 | 0.00 | 63 | 1011.1 |
| 20260902183858 | 91 | 199 | 4.0 | 10.0 | 0.00 | 0.00 | 0.00 | 63 | 1011.1 |
| 20260902183352 | 91 | 325 | 5.0 | 10.0 | 0.00 | 0.00 | 0.00 | 65 | 1011.1 |
| 20260902182841 | 91 | 202 | 5.0 | 10.0 | 0.00 | 0.00 | 0.00 | 66 | 1011.2 |
| 20260902182825 | 91 | 225 | 5.0 | 9.0 | 0.00 | 0.00 | 0.00 | 66 | 1011.2 |
| 20260902182057 | 91 | 248 | 4.0 | 10.0 | 0.00 | 0.00 | 0.00 | 66 | 1011.2 |
| 20260902181329 | 91 | 151 | 4.0 | 10.0 | 0.00 | 0.00 | 0.00 | 66 | 1011.2 |
| 20260902180822 | 91 | 197 | 4.0 | 8.0 | 0.00 | 0.00 | 0.00 | 67 | 1011.2 |
| 20260902180311 | 91 | 217 | 5.0 | 9.0 | 0.00 | 0.00 | 0.00 | 67 | 1011.2 |
| 20260902175810 | 90 | 208 | 4.0 | 9.0 | 0.00 | 0.00 | 0.00 | 66 | 1011.3 |
| 20260902175307 | 90 | 200 | 4.0 | 9.0 | 0.00 | 0.00 | 0.00 | 67 | 1011.3 |
| 20260902174757 | 90 | 221 | 4.0 | 9.0 | 0.00 | 0.00 | 0.00 | 66 | 1011.3 |
| 20260902174253 | 90 | 227 | 5.0 | 9.0 | 0.00 | 0.00 | 0.00 | 65 | 1011.4 |
| 20260902173743 | 90 | 229 | 5.0 | 9.0 | 0.00 | 0.00 | 0.00 | 66 | 1011.4 |
| 20260902173241 | 90 | 229 | 4.0 | 9.0 | 0.00 | 0.00 | 0.00 | 66 | 1011.4 |
| 20260902172735 | 90 | 241 | 5.0 | 11.0 | 0.00 | 0.00 | 0.00 | 66 | 1011.4 |
| 20260902172227 | 89 | 229 | 5.0 | 11.0 | 0.00 | 0.00 | 0.00 | 67 | 1011.4 |
| 20260902171726 | 89 | 194 | 4.0 | 9.0 | 0.00 | 0.00 | 0.00 | 66 | 1011.4 |
| 20260902171224 | 89 | 243 | 5.0 | 10.0 | 0.00 | 0.00 | 0.00 | 66 | 1011.7 |
| 20260902171202 | 89 | 250 | 5.0 | 10.0 | 0.00 | 0.00 | 0.00 | 67 | 1011.7 |
| 20260902170442 | 89 | 222 | 4.0 | 10.0 | 0.00 | 0.00 | 0.00 | 67 | 1011.7 |
| 20260902165721 | 89 | 225 | 3.0 | 8.0 | 0.00 | 0.00 | 0.00 | 68 | 1011.8 |
| 20260902165221 | 88 | 230 | 4.0 | 9.0 | 0.00 | 0.00 | 0.00 | 69 | 1011.8 |
| 20260902164722 | 88 | 249 | 4.0 | 9.0 | 0.00 | 0.00 | 0.00 | 69 | 1011.8 |
| 20260902164218 | 88 | 248 | 4.0 | 9.0 | 0.00 | 0.00 | 0.00 | 69 | 1011.9 |
| 20260902163719 | 87 | 248 | 4.0 | 10.0 | 0.00 | 0.00 | 0.00 | 69 | 1011.9 |
| 20260902162719 | 87 | 227 | 4.0 | 10.0 | 0.00 | 0.00 | 0.00 | 70 | 1011.9 |
| 20260902162219 | 87 | 247 | 5.0 | 11.0 | 0.00 | 0.00 | 0.00 | 70 | 1011.9 |
| 20260902161720 | 87 | 242 | 5.0 | 11.0 | 0.00 | 0.00 | 0.00 | 70 | 1011.9 |
| 20260902161214 | 86 | 220 | 5.0 | 14.0 | 0.00 | 0.00 | 0.00 | 71 | 1011.9 |
| 20260902160700 | 86 | 257 | 5.0 | 14.0 | 0.00 | 0.00 | 0.00 | 71 | 1011.9 |
| 20260902160409 | 85 | 329 | 4.0 | 9.0 | 0.00 | 0.00 | 0.00 | 73 | 1011.9 |
| 20260902155638 | 85 | 202 | 4.0 | 10.0 | 0.00 | 0.00 | 0.00 | 72 | 1011.6 |
| 20260902155353 | 85 | 148 | 5.0 | 10.0 | 0.00 | 0.00 | 0.00 | 73 | 1011.6 |
| 20260902154613 | 85 | 236 | 5.0 | 8.0 | 0.00 | 0.00 | 0.00 | 72 | 1011.6 |
| 20260902154544 | 85 | 230 | 5.0 | 10.0 | 0.00 | 0.00 | 0.00 | 73 | 1011.7 |
| 20260902153556 | 84 | 219 | 5.0 | 11.0 | 0.00 | 0.00 | 0.00 | 73 | 1011.7 |
| 20260902153045 | 84 | 235 | 5.0 | 11.0 | 0.00 | 0.00 | 0.00 | 72 | 1011.7 |
| 20260902152801 | 84 | 209 | 5.0 | 10.0 | 0.00 | 0.00 | 0.00 | 75 | 1011.5 |
| 20260902152038 | 83 | 205 | 4.0 | 9.0 | 0.00 | 0.00 | 0.00 | 74 | 1011.5 |
| 20260902151532 | 83 | 235 | 3.0 | 7.0 | 0.00 | 0.00 | 0.00 | 75 | 1011.5 |
| 20260902151248 | 83 | 214 | 4.0 | 9.0 | 0.00 | 0.00 | 0.00 | 76 | 1011.4 |
| 20260902150736 | 82 | 219 | 5.0 | 10.0 | 0.00 | 0.00 | 0.00 | 76 | 1011.4 |
| 20260902150014 | 82 | 221 | 4.0 | 10.0 | 0.00 | 0.00 | 0.00 | 76 | 1011.4 |
| 20260902145510 | 82 | 205 | 4.0 | 9.0 | 0.00 | 0.00 | 0.00 | 76 | 1011.6 |
| 20260902145002 | 82 | 221 | 4.0 | 9.0 | 0.00 | 0.00 | 0.00 | 76 | 1011.6 |
| 20260902144457 | 82 | 229 | 5.0 | 12.0 | 0.00 | 0.00 | 0.00 | 76 | 1011.6 |
| 20260902143950 | 82 | 238 | 6.0 | 12.0 | 0.00 | 0.00 | 0.00 | 75 | 1011.6 |
| 20260902143440 | 82 | 217 | 5.0 | 10.0 | 0.00 | 0.00 | 0.00 | 76 | 1011.6 |
| 20260902142934 | 81 | 253 | 4.0 | 11.0 | 0.00 | 0.00 | 0.00 | 78 | 1011.7 |
| 20260902142432 | 81 | 140 | 5.0 | 11.0 | 0.00 | 0.00 | 0.00 | 78 | 1011.7 |
| 20260902141927 | 81 | 201 | 5.0 | 10.0 | 0.00 | 0.00 | 0.00 | 77 | 1011.7 |
| 20260902141643 | 80 | 211 | 4.0 | 8.0 | 0.00 | 0.00 | 0.00 | 78 | 1011.9 |
| 20260902140916 | 80 | 202 | 4.0 | 10.0 | 0.00 | 0.00 | 0.00 | 78 | 1011.9 |
| 20260902140403 | 80 | 220 | 5.0 | 11.0 | 0.00 | 0.00 | 0.00 | 78 | 1011.9 |
| 20260902135903 | 79 | 205 | 4.0 | 11.0 | 0.00 | 0.00 | 0.00 | 79 | 1011.9 |
| 20260902135357 | 79 | 202 | 3.0 | 10.0 | 0.00 | 0.00 | 0.00 | 80 | 1011.9 |
| 20260902135112 | 78 | 234 | 3.0 | 7.0 | 0.00 | 0.00 | 0.00 | 80 | 1011.9 |
| 20260902134341 | 78 | 209 | 3.0 | 7.0 | 0.00 | 0.00 | 0.00 | 81 | 1012.0 |